FW6909 Weather Reports


time (UTC)temp
C
wind
direction
speed
KPH
gust
KPH
rain 1hr
cm
rain 24hr
cm
rain mn
cm
humidity
%
barometer
mb
20260506153531 12 74 0.0 1.6 0.00 0.00 0.00 46 1014.0
20260506153105 12 32 0.0 1.6 0.00 0.00 0.00 47 1014.0
20260506152531 12 0 0.0 1.6 0.00 0.00 0.00 45 1014.0
20260506152031 12 44 0.0 1.6 0.00 0.00 0.00 46 1014.1
20260506151544 12 0 0.0 3.2 0.00 0.00 0.00 46 1014.0
20260506151038 12 0 0.0 4.8 0.00 0.00 0.00 46 1014.1
20260506150531 12 0 0.0 8.0 0.00 0.00 0.00 47 1014.1
20260506150052 12 0 0.0 8.0 0.00 0.00 0.00 46 1014.2
20260506145531 12 84 3.2 8.0 0.00 0.00 0.00 45 1014.3
20260506145032 12 89 0.0 3.2 0.00 0.00 0.00 45 1014.3
20260506144536 12 12 0.0 4.8 0.00 0.00 0.00 47 1014.3
20260506144032 12 64 1.6 4.8 0.00 0.00 0.00 46 1014.3
20260506143532 12 319 1.6 6.4 0.00 0.00 0.00 46 1014.2
20260506143044 12 0 1.6 6.4 0.00 0.00 0.00 47 1014.4
20260506142532 11 65 1.6 6.4 0.00 0.00 0.00 46 1014.4
20260506142032 12 71 0.0 12.9 0.00 0.00 0.00 46 1014.4
20260506141545 12 139 6.4 12.9 0.00 0.00 0.00 45 1014.5
20260506141031 12 0 0.0 3.2 0.00 0.00 0.00 45 1014.5
20260506140533 12 82 1.6 3.2 0.00 0.00 0.00 44 1014.6
20260506140042 12 24 0.0 3.2 0.00 0.00 0.00 44 1014.7
20260506135531 12 248 0.0 8.0 0.00 0.00 0.00 45 1014.6
20260506135031 12 81 3.2 8.0 0.00 0.00 0.00 44 1014.7
20260506134543 12 0 0.0 4.8 0.00 0.00 0.00 46 1014.9
20260506134033 12 109 1.6 4.8 0.00 0.00 0.00 44 1014.9
20260506133531 12 152 0.0 6.4 0.00 0.00 0.00 45 1014.8
20260506133048 12 46 1.6 11.3 0.00 0.00 0.00 45 1014.8
20260506132533 12 65 6.4 11.3 0.00 0.00 0.00 45 1014.9
20260506132032 12 349 1.6 9.7 0.00 0.00 0.00 45 1014.9
20260506131552 12 87 4.8 9.7 0.00 0.00 0.00 44 1014.9
20260506131032 12 326 1.6 8.0 0.00 0.00 0.00 45 1014.9
20260506130532 12 278 3.2 11.3 0.00 0.00 0.00 46 1015.1
20260506130043 12 88 3.2 11.3 0.00 0.00 0.00 47 1015.1
20260506125532 12 82 8.0 12.9 0.00 0.00 0.00 45 1015.2
20260506125034 12 95 6.4 12.9 0.00 0.00 0.00 44 1015.1
20260506124535 12 61 1.6 12.9 0.00 0.00 0.00 45 1015.1
20260506124035 12 162 6.4 12.9 0.00 0.00 0.00 45 1015.2
20260506123531 12 281 0.0 8.0 0.00 0.00 0.00 46 1015.2
20260506123042 11 138 3.2 16.1 0.00 0.00 0.00 45 1015.2
20260506122531 11 95 3.2 16.1 0.00 0.00 0.00 44 1015.3
20260506122031 12 86 1.6 9.7 0.00 0.00 0.00 44 1015.5
20260506121539 11 53 1.6 14.5 0.00 0.00 0.00 46 1015.3
20260506121033 11 152 4.8 14.5 0.00 0.00 0.00 44 1015.5
20260506120534 11 79 3.2 11.3 0.00 0.00 0.00 45 1015.4
20260506120040 11 75 3.2 11.3 0.00 0.00 0.00 46 1015.4
20260506115534 10 30 4.8 12.9 0.00 0.00 0.00 47 1015.5
20260506115031 11 65 6.4 12.9 0.00 0.00 0.00 45 1015.4
20260506114536 10 100 1.6 11.3 0.00 0.00 0.00 46 1015.4
20260506114031 10 267 3.2 11.3 0.00 0.00 0.00 46 1015.5
20260506113531 10 68 4.8 12.9 0.00 0.00 0.00 45 1015.6
20260506113041 10 122 6.4 12.9 0.00 0.00 0.00 45 1015.7
20260506112531 10 106 6.4 14.5 0.00 0.00 0.00 44 1015.8
20260506112035 10 106 4.8 14.5 0.00 0.00 0.00 44 1015.8
20260506111535 10 128 3.2 14.5 0.00 0.00 0.00 45 1015.8
20260506111031 10 336 3.2 14.5 0.00 0.00 0.00 47 1015.8
20260506110531 10 82 8.0 14.5 0.00 0.00 0.00 46 1015.9
20260506110038 10 105 6.4 12.9 0.00 0.00 0.00 45 1016.0
20260506105531 10 71 4.8 11.3 0.00 0.00 0.00 45 1016.0
20260506105035 10 103 4.8 11.3 0.00 0.00 0.00 45 1015.9
20260506104536 10 34 3.2 14.5 0.00 0.00 0.00 46 1016.0
20260506104030 10 56 3.2 14.5 0.00 0.00 0.00 47 1016.0
20260506103531 10 65 4.8 12.9 0.00 0.00 0.00 46 1016.1
20260506103039 10 98 4.8 12.9 0.00 0.00 0.00 47 1016.0
20260506102532 10 82 6.4 12.9 0.00 0.00 0.00 47 1016.0
20260506102031 10 63 1.6 4.8 0.00 0.00 0.00 48 1016.1
20260506101543 10 148 1.6 11.3 0.00 0.00 0.00 50 1016.2
20260506101031 10 316 3.2 11.3 0.00 0.00 0.00 53 1016.3
20260506100531 9 82 4.8 14.5 0.00 0.00 0.00 53 1016.3
20260506100042 9 59 3.2 14.5 0.00 0.00 0.00 53 1016.4
20260506095531 9 107 4.8 14.5 0.00 0.00 0.00 53 1016.5
20260506095030 8 75 4.8 14.5 0.00 0.00 0.00 54 1016.5
20260506094541 9 70 6.4 11.3 0.00 0.00 0.00 55 1016.5
20260506094030 8 114 3.2 14.5 0.00 0.00 0.00 55 1016.4
20260506093533 8 109 3.2 14.5 0.00 0.00 0.00 55 1016.5
20260506093035 8 67 6.4 14.5 0.00 0.00 0.00 54 1016.6
20260506092535 8 58 8.0 14.5 0.00 0.00 0.00 54 1016.6
20260506092031 8 87 4.8 12.9 0.00 0.00 0.00 55 1016.8
20260506091551 8 82 4.8 9.7 0.00 0.00 0.00 56 1016.7
20260506091032 8 75 4.8 12.9 0.00 0.00 0.00 56 1016.7
20260506090531 8 133 4.8 12.9 0.00 0.00 0.00 57 1016.6
20260506090045 7 79 6.4 11.3 0.00 0.00 0.00 57 1016.7
20260506085531 7 110 4.8 12.9 0.00 0.00 0.00 56 1016.8
20260506085030 7 44 4.8 12.9 0.00 0.00 0.00 56 1016.9
20260506084547 7 79 4.8 11.3 0.00 0.00 0.00 57 1017.0
20260506084031 7 105 6.4 14.5 0.00 0.00 0.00 56 1017.0
20260506083533 7 109 3.2 14.5 0.00 0.00 0.00 57 1017.0
20260506083038 7 78 6.4 14.5 0.00 0.00 0.00 58 1016.9
20260506082530 7 82 6.4 12.9 0.00 0.00 0.00 59 1016.8
20260506082031 7 107 4.8 14.5 0.00 0.00 0.00 60 1016.9
20260506081545 7 82 8.0 14.5 0.00 0.00 0.00 60 1017.0
20260506081032 7 61 8.0 14.5 0.00 0.00 0.00 60 1016.9
20260506080531 7 46 4.8 14.5 0.00 0.00 0.00 62 1016.7
20260506073042 6 88 6.4 12.9 0.00 0.00 0.00 64 1016.7
20260506072534 6 75 4.8 12.9 0.00 0.00 0.00 64 1016.7
20260506072031 6 82 4.8 12.9 0.00 0.00 0.00 65 1016.7
20260506071538 6 65 6.4 12.9 0.00 0.00 0.00 65 1016.7
20260506071033 6 114 6.4 12.9 0.00 0.00 0.00 66 1016.7
20260506070531 6 127 4.8 9.7 0.00 0.00 0.00 67 1016.9
20260506062031 6 68 1.6 8.0 0.00 0.00 0.00 69 1016.7
20260506061545 6 113 1.6 8.0 0.00 0.00 0.00 70 1016.7
20260506061031 6 79 1.6 6.4 0.00 0.00 0.00 70 1016.8
20260506060532 6 80 1.6 6.4 0.00 0.00 0.00 70 1016.8
20260506051031 5 75 1.6 4.8 0.00 0.00 0.00 69 1016.8
20260506050531 5 105 1.6 6.4 0.00 0.00 0.00 69 1016.9
20260506045030 5 76 1.6 4.8 0.00 0.00 0.00 69 1016.8
20260506044543 5 76 1.6 4.8 0.00 0.00 0.00 69 1016.8
20260506044030 5 58 1.6 4.8 0.00 0.00 0.00 69 1017.0
20260506043534 5 72 1.6 3.2 0.00 0.00 0.00 69 1016.8
20260506043043 5 76 0.0 3.2 0.00 0.00 0.00 69 1016.8
20260506042530 5 83 0.0 3.2 0.00 0.00 0.00 68 1017.0
20260506042030 5 85 1.6 4.8 0.00 0.00 0.00 68 1017.0
20260506041537 6 89 1.6 4.8 0.00 0.00 0.00 68 1017.0
20260506041030 6 65 1.6 6.4 0.00 0.00 0.00 68 1016.8
20260506040535 6 84 1.6 6.4 0.00 0.00 0.00 67 1016.8
20260506040045 6 55 3.2 6.4 0.00 0.00 0.00 67 1017.0
20260506035530 6 74 0.0 6.4 0.00 0.00 0.00 67 1016.8
20260506035030 6 72 3.2 8.0 0.00 0.00 0.00 67 1016.9
20260506034558 6 82 3.2 8.0 0.00 0.00 0.00 67 1017.0
20260506034030 6 89 3.2 8.0 0.00 0.00 0.00 67 1016.9
20260506033531 6 71 3.2 8.0 0.00 0.00 0.00 66 1016.9
20260506033055 6 108 3.2 6.4 0.00 0.00 0.00 66 1016.9
20260506032531 6 122 1.6 6.4 0.00 0.00 0.00 66 1017.0
20260506032031 6 82 3.2 6.4 0.00 0.00 0.00 66 1017.0
20260506031533 6 70 1.6 6.4 0.00 0.00 0.00 66 1016.9
20260506031031 6 98 3.2 6.4 0.00 0.00 0.00 66 1016.9
20260506030530 6 92 3.2 6.4 0.00 0.00 0.00 66 1017.0
20260506030044 6 54 1.6 6.4 0.00 0.00 0.00 66 1017.0
20260506025530 6 71 3.2 6.4 0.00 0.00 0.00 66 1017.1
20260506025030 6 94 3.2 6.4 0.00 0.00 0.00 66 1017.1
20260506024555 6 58 1.6 6.4 0.00 0.00 0.00 66 1017.1
20260506024031 6 60 3.2 6.4 0.00 0.00 0.00 66 1017.0
20260506023531 6 56 1.6 4.8 0.00 0.00 0.00 66 1017.0
20260506023040 6 77 1.6 6.4 0.00 0.00 0.00 66 1017.1
20260506022530 6 76 1.6 6.4 0.00 0.00 0.00 66 1017.1
20260506022031 6 77 3.2 8.0 0.00 0.00 0.00 65 1017.1
20260506021538 6 89 1.6 11.3 0.00 0.00 0.00 65 1017.0
20260506021031 6 71 3.2 11.3 0.00 0.00 0.00 65 1017.1
20260506020530 6 94 4.8 11.3 0.00 0.00 0.00 65 1017.0
20260506020035 6 86 3.2 8.0 0.00 0.00 0.00 65 1017.1
20260506015531 6 63 3.2 9.7 0.00 0.00 0.00 64 1017.1
20260506015031 6 77 3.2 11.3 0.00 0.00 0.00 65 1017.0
20260506014536 6 66 4.8 11.3 0.00 0.00 0.00 64 1017.0
20260506014030 6 102 4.8 6.4 0.00 0.00 0.00 64 1017.2
20260506013530 6 59 1.6 8.0 0.00 0.00 0.00 64 1017.3
20260506013059 6 96 3.2 8.0 0.00 0.00 0.00 64 1017.2
20260506012531 6 86 3.2 8.0 0.00 0.00 0.00 64 1017.3
20260506012031 6 77 1.6 8.0 0.00 0.00 0.00 64 1017.4
20260506011542 6 85 3.2 9.7 0.00 0.00 0.00 63 1017.4
20260506011030 6 72 3.2 9.7 0.00 0.00 0.00 63 1017.5
20260506010531 6 72 3.2 8.0 0.00 0.00 0.00 63 1017.5
20260506010037 6 82 3.2 8.0 0.00 0.00 0.00 63 1017.5
20260506005530 6 80 4.8 9.7 0.00 0.00 0.00 63 1017.5
20260506005030 6 68 4.8 9.7 0.00 0.00 0.00 63 1017.6
20260506004536 6 160 3.2 9.7 0.00 0.00 0.00 63 1017.6
20260506004030 7 72 4.8 11.3 0.00 0.00 0.00 63 1017.6
20260506003530 7 78 4.8 11.3 0.00 0.00 0.00 62 1017.6
20260506003042 7 68 6.4 12.9 0.00 0.00 0.00 62 1017.7
20260506002530 7 78 4.8 14.5 0.00 0.00 0.00 62 1017.7
20260506002030 7 95 6.4 14.5 0.00 0.00 0.00 63 1017.7
20260506001545 7 74 9.7 14.5 0.00 0.00 0.00 62 1017.5
20260506001030 7 71 4.8 9.7 0.00 0.00 0.00 63 1017.6
20260506000530 7 59 4.8 9.7 0.00 0.00 0.00 63 1017.6
20260506000037 7 72 3.2 11.3 0.00 0.00 0.00 63 1017.6
20260505235531 7 81 6.4 11.3 0.00 0.00 0.00 63 1017.5
20260505235031 7 70 4.8 9.7 0.00 0.00 0.00 63 1017.5
20260505234537 7 75 4.8 11.3 0.00 0.00 0.00 63 1017.5
20260505234030 7 49 3.2 11.3 0.00 0.00 0.00 63 1017.5
20260505233531 7 69 4.8 9.7 0.00 0.00 0.00 63 1017.6
20260505233043 7 84 3.2 9.7 0.00 0.00 0.00 63 1017.5
20260505232530 7 59 4.8 12.9 0.00 0.00 0.00 63 1017.6
20260505232030 7 108 3.2 12.9 0.00 0.00 0.00 64 1017.7
20260505231543 7 83 6.4 12.9 0.00 0.00 0.00 63 1017.7
20260505231033 7 56 4.8 16.1 0.00 0.00 0.00 63 1017.7
20260505230530 7 68 6.4 16.1 0.00 0.00 0.00 63 1017.7
20260505230051 7 68 8.0 16.1 0.00 0.00 0.00 63 1017.8
20260505225530 7 117 6.4 14.5 0.00 0.00 0.00 63 1017.9
20260505225030 7 63 6.4 12.9 0.00 0.00 0.00 63 1017.9
20260505224536 7 70 4.8 12.9 0.00 0.00 0.00 63 1017.8
20260505224030 7 78 4.8 14.5 0.00 0.00 0.00 63 1017.9
20260505223530 7 69 6.4 14.5 0.00 0.00 0.00 64 1017.8
20260505223054 7 96 3.2 8.0 0.00 0.00 0.00 64 1017.9
20260505222534 7 65 3.2 8.0 0.00 0.00 0.00 64 1018.0
20260505222032 7 75 3.2 14.5 0.00 0.00 0.00 63 1017.9
20260505221543 7 58 3.2 14.5 0.00 0.00 0.00 63 1017.9
20260505221031 7 108 4.8 12.9 0.00 0.00 0.00 63 1017.7
20260505220530 7 60 4.8 11.3 0.00 0.00 0.00 63 1017.8
20260505220044 7 74 6.4 14.5 0.00 0.00 0.00 63 1017.9
20260505215530 7 63 6.4 14.5 0.00 0.00 0.00 63 1018.0
20260505215030 7 94 6.4 14.5 0.00 0.00 0.00 63 1018.1
20260505214540 7 65 4.8 11.3 0.00 0.00 0.00 62 1017.8
20260505214030 7 65 4.8 11.3 0.00 0.00 0.00 63 1017.9
20260505213530 7 92 4.8 12.9 0.00 0.00 0.00 63 1017.7
20260505213050 7 106 4.8 12.9 0.00 0.00 0.00 62 1017.8
20260505212533 7 78 4.8 12.9 0.00 0.00 0.00 62 1017.7
20260505212033 7 80 4.8 20.9 0.00 0.00 0.00 62 1017.7
20260505211535 7 75 6.4 20.9 0.00 0.00 0.00 62 1017.6
20260505211031 7 76 6.4 14.5 0.00 0.00 0.00 62 1017.6
20260505210536 7 60 4.8 17.7 0.00 0.00 0.00 61 1017.6
20260505210042 7 93 6.4 17.7 0.00 0.00 0.00 61 1017.6
20260505205531 7 84 8.0 17.7 0.00 0.00 0.00 61 1017.5
20260505205032 7 61 8.0 17.7 0.00 0.00 0.00 61 1017.5
20260505204546 7 72 8.0 17.7 0.00 0.00 0.00 61 1017.4
20260505204033 7 64 6.4 17.7 0.00 0.00 0.00 61 1017.4
20260505203531 7 119 9.7 16.1 0.00 0.00 0.00 61 1017.2
20260505203046 7 72 8.0 14.5 0.00 0.00 0.00 62 1017.3
20260505202531 7 65 8.0 17.7 0.00 0.00 0.00 62 1017.3
20260505202031 8 77 6.4 20.9 0.00 0.00 0.00 62 1017.2
20260505201546 8 85 9.7 20.9 0.00 0.00 0.00 62 1017.2
20260505201032 8 80 9.7 20.9 0.00 0.00 0.00 62 1017.2
20260505200532 8 65 12.9 20.9 0.00 0.00 0.00 63 1017.2
20260505200045 8 112 9.7 19.3 0.00 0.00 0.00 63 1017.1
20260505195531 8 75 8.0 17.7 0.00 0.00 0.00 63 1017.1
20260505195033 8 120 9.7 17.7 0.00 0.00 0.00 64 1017.0
20260505194550 8 67 6.4 20.9 0.00 0.00 0.00 64 1017.1
20260505194034 8 60 8.0 20.9 0.00 0.00 0.00 63 1017.0
20260505193533 8 63 12.9 20.9 0.00 0.00 0.00 63 1017.0
20260505193042 8 81 8.0 17.7 0.00 0.00 0.00 63 1016.9
20260505192534 8 85 8.0 17.7 0.00 0.00 0.00 63 1016.9
20260505192032 8 81 8.0 16.1 0.00 0.00 0.00 62 1016.9
20260505191541 8 73 9.7 20.9 0.00 0.00 0.00 62 1016.8
20260505191033 8 110 8.0 20.9 0.00 0.00 0.00 62 1016.7
20260505190535 8 72 8.0 12.9 0.00 0.00 0.00 62 1016.8
20260505190048 9 92 4.8 16.1 0.00 0.00 0.00 63 1016.7
20260505185533 9 60 4.8 16.1 0.00 0.00 0.00 63 1016.7
20260505185032 9 70 9.7 14.5 0.00 0.00 0.00 62 1016.7
20260505184550 9 94 8.0 14.5 0.00 0.00 0.00 62 1016.6
20260505184034 9 80 8.0 19.3 0.00 0.00 0.00 62 1016.5
20260505183532 9 56 11.3 19.3 0.00 0.00 0.00 61 1016.5
20260505183049 9 72 9.7 24.1 0.00 0.00 0.00 61 1016.6
20260505182531 10 70 12.9 24.1 0.00 0.00 0.00 61 1016.6
20260505182034 10 97 9.7 22.5 0.00 0.00 0.00 62 1016.5
20260505181541 10 81 12.9 25.7 0.00 0.00 0.00 61 1016.5
20260505181033 10 75 9.7 25.7 0.00 0.00 0.00 61 1016.4
20260505180533 10 60 11.3 25.7 0.00 0.00 0.00 61 1016.5
20260505180039 10 89 9.7 22.5 0.00 0.00 0.00 61 1016.4
20260505175532 10 96 9.7 22.5 0.00 0.00 0.00 62 1016.4
20260505175032 9 50 11.3 22.5 0.00 0.00 0.00 62 1016.3
20260505174537 10 92 11.3 22.5 0.00 0.00 0.00 62 1016.4
20260505174032 10 46 12.9 27.4 0.00 0.00 0.00 61 1016.4
20260505173534 10 131 9.7 27.4 0.00 0.00 0.00 62 1016.5
20260505173043 10 28 8.0 19.3 0.00 0.00 0.00 62 1016.3
20260505172531 10 68 9.7 17.7 0.00 0.00 0.00 62 1016.4
20260505172032 10 84 8.0 17.7 0.00 0.00 0.00 62 1016.4
20260505171543 10 74 9.7 27.4 0.00 0.00 0.00 62 1016.4
20260505171034 10 68 14.5 27.4 0.00 0.00 0.00 63 1016.3
20260505170532 10 85 11.3 24.1 0.00 0.00 0.00 63 1016.3
20260505170042 10 79 9.7 20.9 0.00 0.00 0.00 63 1016.3
20260505165532 10 70 9.7 20.9 0.00 0.00 0.00 62 1016.2
20260505165032 11 65 11.3 20.9 0.00 0.00 0.00 61 1016.2
20260505164556 11 88 9.7 20.9 0.00 0.00 0.00 60 1016.2
20260505164032 11 94 11.3 20.9 0.00 0.00 0.00 60 1016.1
20260505163532 11 90 12.9 20.9 0.00 0.00 0.00 60 1016.1
20260505163038 11 46 11.3 19.3 0.00 0.00 0.00 61 1016.0
20260505162531 10 123 8.0 19.3 0.00 0.00 0.00 63 1016.1
20260505162032 10 94 9.7 20.9 0.00 0.00 0.00 62 1016.1
20260505161537 10 64 9.7 20.9 0.00 0.00 0.00 62 1016.0
20260505161033 11 84 6.4 19.3 0.00 0.00 0.00 63 1016.2
20260505160533 10 79 11.3 20.9 0.00 0.00 0.00 62 1016.2